Time,TemperatureF,DewpointF,PressureIn,WindDirection,WindDirectionDegrees,WindSpeedMPH,WindSpeedGustMPH,Humidity,HourlyPrecipIn,Conditions,Clouds,dailyrainin,SoftwareType,DateUTC
2013-07-02 00:22:00,64.0,60.0,29.98,NE,52,1.0,8.0,88,0.00,,,0.08,,2013-07-02 05:22:00,
2013-07-02 00:32:00,64.0,60.0,29.98,NE,52,1.0,8.0,88,0.00,,,0.08,,2013-07-02 05:32:00,
2013-07-02 00:34:00,64.0,59.0,29.97,NNE,14,4.0,11.0,83,0.00,,,0.08,,2013-07-02 05:34:00,
2013-07-02 00:43:00,64.0,60.0,29.98,NE,52,1.0,8.0,88,0.00,,,0.08,,2013-07-02 05:43:00,
2013-07-02 00:53:00,64.0,59.0,29.97,NNE,14,4.0,11.0,83,0.00,,,0.08,,2013-07-02 05:53:00,
2013-07-02 01:01:00,64.0,59.0,29.97,NNE,14,4.0,11.0,83,0.00,,,0.08,,2013-07-02 06:01:00,
2013-07-02 01:12:00,64.0,59.0,29.97,NNE,14,4.0,11.0,83,0.00,,,0.08,,2013-07-02 06:12:00,
2013-07-02 01:23:00,64.0,59.0,29.97,NNE,14,4.0,11.0,83,0.00,,,0.08,,2013-07-02 06:23:00,
2013-07-02 01:34:00,64.0,57.0,29.97,NE,44,4.0,11.0,79,0.00,,,0.08,,2013-07-02 06:34:00,
2013-07-02 01:53:00,64.0,57.0,29.97,NE,44,4.0,11.0,79,0.00,,,0.08,,2013-07-02 06:53:00,
2013-07-02 02:01:00,64.0,57.0,29.97,NE,44,4.0,11.0,79,0.00,,,0.08,,2013-07-02 07:01:00,
2013-07-02 02:12:00,64.0,57.0,29.97,NE,44,4.0,11.0,79,0.00,,,0.08,,2013-07-02 07:12:00,
2013-07-02 02:22:00,64.0,57.0,29.97,NE,44,4.0,11.0,79,0.00,,,0.08,,2013-07-02 07:22:00,
2013-07-02 04:52:00,62.0,58.0,29.96,NE,42,4.0,11.0,87,0.03,,,0.10,,2013-07-02 09:52:00,
2013-07-02 05:01:00,62.0,58.0,29.96,NE,42,4.0,11.0,87,0.03,,,0.10,,2013-07-02 10:01:00,
2013-07-02 05:11:00,62.0,58.0,29.96,NE,42,4.0,11.0,87,0.03,,,0.10,,2013-07-02 10:11:00,
2013-07-02 05:22:00,61.0,57.0,29.96,NE,52,3.0,8.0,87,0.01,,,0.10,,2013-07-02 10:22:00,
2013-07-02 05:33:00,61.0,57.0,29.96,NE,52,3.0,8.0,87,0.01,,,0.10,,2013-07-02 10:33:00,
2013-07-02 05:44:00,61.0,57.0,29.96,NE,52,3.0,8.0,87,0.01,,,0.10,,2013-07-02 10:44:00,
2013-07-02 05:52:00,62.0,58.0,29.97,NE,40,2.0,5.0,86,0.00,,,0.10,,2013-07-02 10:52:00,
2013-07-02 06:01:00,62.0,58.0,29.97,NE,40,2.0,5.0,86,0.00,,,0.10,,2013-07-02 11:01:00,
2013-07-02 06:11:00,62.0,58.0,29.97,NE,40,2.0,5.0,86,0.00,,,0.10,,2013-07-02 11:11:00,
2013-07-02 06:22:00,62.0,58.0,29.97,NE,40,2.0,5.0,86,0.00,,,0.10,,2013-07-02 11:22:00,
2013-07-02 06:33:00,62.0,58.0,29.97,NE,40,2.0,5.0,86,0.00,,,0.10,,2013-07-02 11:33:00,
2013-07-02 06:52:00,61.0,58.0,29.98,NNE,14,2.0,11.0,89,0.02,,,0.12,,2013-07-02 11:52:00,
2013-07-02 07:01:00,61.0,58.0,29.98,NNE,14,2.0,11.0,89,0.02,,,0.12,,2013-07-02 12:01:00,
2013-07-02 07:11:00,61.0,58.0,29.98,NNE,14,2.0,11.0,89,0.02,,,0.12,,2013-07-02 12:11:00,
2013-07-02 07:23:00,61.0,58.0,29.98,NNE,14,2.0,11.0,89,0.02,,,0.12,,2013-07-02 12:23:00,
2013-07-02 07:33:00,61.0,58.0,29.98,NNE,14,2.0,11.0,89,0.02,,,0.12,,2013-07-02 12:33:00,
2013-07-02 09:22:00,62.0,59.0,30.00,North,4,3.0,10.0,89,0.00,,,0.15,,2013-07-02 14:22:00,
2013-07-02 09:33:00,62.0,59.0,30.00,North,4,3.0,10.0,89,0.00,,,0.15,,2013-07-02 14:33:00,
2013-07-02 09:43:00,62.0,59.0,30.00,North,4,3.0,10.0,89,0.00,,,0.15,,2013-07-02 14:43:00,
2013-07-02 09:53:00,62.0,58.0,30.01,North,350,4.0,9.0,88,0.00,,,0.15,,2013-07-02 14:53:00,
2013-07-02 10:02:00,62.0,58.0,30.01,North,350,4.0,9.0,88,0.00,,,0.15,,2013-07-02 15:02:00,
2013-07-02 10:11:00,62.0,58.0,30.01,North,350,4.0,9.0,88,0.00,,,0.15,,2013-07-02 15:11:00,
2013-07-02 10:22:00,62.0,58.0,30.01,North,350,4.0,9.0,88,0.00,,,0.15,,2013-07-02 15:22:00,
2013-07-02 10:33:00,62.0,58.0,30.01,North,350,4.0,9.0,88,0.00,,,0.15,,2013-07-02 15:33:00,
2013-07-02 11:22:00,65.0,60.0,30.01,NNE,33,5.0,10.0,83,0.00,,,0.15,,2013-07-02 16:22:00,
2013-07-02 11:33:00,65.0,60.0,30.01,NNE,33,5.0,10.0,83,0.00,,,0.15,,2013-07-02 16:33:00,
2013-07-02 11:43:00,65.0,60.0,30.01,NNE,33,5.0,10.0,83,0.00,,,0.15,,2013-07-02 16:43:00,
2013-07-02 11:52:00,65.0,59.0,30.00,North,350,6.0,13.0,82,0.00,,,0.15,,2013-07-02 16:52:00,
2013-07-02 12:02:00,65.0,59.0,30.00,North,350,6.0,13.0,82,0.00,,,0.15,,2013-07-02 17:02:00,
2013-07-02 12:12:00,65.0,59.0,30.00,North,350,6.0,13.0,82,0.00,,,0.15,,2013-07-02 17:12:00,
2013-07-02 12:33:00,66.0,61.0,30.00,NNE,12,3.0,9.0,83,0.00,,,0.15,,2013-07-02 17:33:00,
2013-07-02 12:43:00,66.0,61.0,30.00,NNE,12,3.0,9.0,83,0.00,,,0.15,,2013-07-02 17:43:00,
2013-07-02 12:53:00,66.0,60.0,30.01,NNE,12,3.0,11.0,82,0.00,,,0.15,,2013-07-02 17:53:00,
2013-07-02 13:02:00,66.0,60.0,30.01,NNE,12,3.0,11.0,82,0.00,,,0.15,,2013-07-02 18:02:00,
2013-07-02 13:12:00,66.0,60.0,30.01,NNE,12,3.0,11.0,82,0.00,,,0.15,,2013-07-02 18:12:00,
2013-07-02 13:23:00,66.0,60.0,30.01,NNE,12,3.0,11.0,82,0.00,,,0.15,,2013-07-02 18:23:00,
2013-07-02 13:33:00,66.0,60.0,30.01,NNE,19,6.0,11.0,81,0.00,,,0.15,,2013-07-02 18:33:00,
2013-07-02 13:53:00,66.0,60.0,30.01,NNE,19,6.0,11.0,81,0.00,,,0.15,,2013-07-02 18:53:00,
2013-07-02 14:01:00,66.0,60.0,30.01,NNE,19,6.0,11.0,81,0.00,,,0.15,,2013-07-02 19:01:00,
2013-07-02 14:12:00,66.0,60.0,30.01,NNE,19,6.0,11.0,81,0.00,,,0.15,,2013-07-02 19:12:00,
2013-07-02 14:22:00,66.0,60.0,30.01,NNE,19,6.0,11.0,81,0.00,,,0.15,,2013-07-02 19:22:00,
2013-07-02 14:53:00,65.0,60.0,30.01,NE,44,5.0,9.0,83,0.00,,,0.15,,2013-07-02 19:53:00,
2013-07-02 15:02:00,65.0,60.0,30.01,NE,44,5.0,9.0,83,0.00,,,0.15,,2013-07-02 20:02:00,
2013-07-02 15:11:00,65.0,60.0,30.01,NE,44,5.0,9.0,83,0.00,,,0.15,,2013-07-02 20:11:00,
2013-07-02 15:22:00,66.0,61.0,30.01,NNW,335,2.0,8.0,83,0.00,,,0.15,,2013-07-02 20:22:00,
2013-07-02 15:33:00,66.0,61.0,30.01,NNW,335,2.0,8.0,83,0.00,,,0.15,,2013-07-02 20:33:00,
2013-07-02 15:43:00,66.0,61.0,30.01,NNW,335,2.0,8.0,83,0.00,,,0.15,,2013-07-02 20:43:00,
2013-07-02 15:52:00,66.0,61.0,30.00,NE,42,4.0,9.0,83,0.00,,,0.15,,2013-07-02 20:52:00,
2013-07-02 16:02:00,66.0,61.0,30.00,NE,42,4.0,9.0,83,0.00,,,0.15,,2013-07-02 21:02:00,
2013-07-02 16:11:00,66.0,61.0,30.00,NE,42,4.0,9.0,83,0.00,,,0.15,,2013-07-02 21:11:00,
2013-07-02 16:22:00,67.0,61.0,30.00,NNE,25,2.0,11.0,82,0.00,,,0.15,,2013-07-02 21:22:00,
2013-07-02 16:33:00,67.0,61.0,30.00,NNE,25,2.0,11.0,82,0.00,,,0.15,,2013-07-02 21:33:00,
2013-07-02 16:34:00,67.0,61.0,30.00,North,355,4.0,8.0,81,0.00,,,0.15,,2013-07-02 21:34:00,
2013-07-02 16:44:00,67.0,61.0,30.00,NNE,25,2.0,11.0,82,0.00,,,0.15,,2013-07-02 21:44:00,
2013-07-02 16:52:00,67.0,61.0,30.00,North,355,4.0,8.0,81,0.00,,,0.15,,2013-07-02 21:52:00,
2013-07-02 17:01:00,67.0,61.0,30.00,North,355,4.0,8.0,81,0.00,,,0.15,,2013-07-02 22:01:00,
2013-07-02 17:11:00,67.0,61.0,30.00,North,355,4.0,8.0,81,0.00,,,0.15,,2013-07-02 22:11:00,
2013-07-02 17:22:00,67.0,61.0,30.00,North,355,4.0,8.0,81,0.00,,,0.15,,2013-07-02 22:22:00,
2013-07-02 17:33:00,68.0,61.0,30.00,NNE,17,3.0,7.0,79,0.00,,,0.15,,2013-07-02 22:33:00,
2013-07-02 17:53:00,68.0,61.0,30.00,NNE,17,3.0,7.0,79,0.00,,,0.15,,2013-07-02 22:53:00,
2013-07-02 18:01:00,68.0,61.0,30.00,NNE,17,3.0,7.0,79,0.00,,,0.15,,2013-07-02 23:01:00,
2013-07-02 18:12:00,68.0,61.0,30.00,NNE,17,3.0,7.0,79,0.00,,,0.15,,2013-07-02 23:12:00,
2013-07-02 18:22:00,68.0,61.0,30.00,NNE,17,3.0,7.0,79,0.00,,,0.15,,2013-07-02 23:22:00,
2013-07-02 18:33:00,68.0,61.0,29.99,NNE,23,4.0,8.0,79,-99.99,,,-99.99,,2013-07-02 23:33:00,
2013-07-02 18:52:00,68.0,61.0,29.99,NNE,23,4.0,8.0,79,-99.99,,,-99.99,,2013-07-02 23:52:00,
2013-07-02 19:01:00,68.0,61.0,29.99,NNE,23,4.0,8.0,79,-99.99,,,-99.99,,2013-07-03 00:01:00,
2013-07-02 19:11:00,68.0,61.0,29.99,NNE,23,4.0,8.0,79,-99.99,,,-99.99,,2013-07-03 00:11:00,
2013-07-02 19:22:00,68.0,61.0,29.99,NNE,23,4.0,8.0,79,-99.99,,,-99.99,,2013-07-03 00:22:00,
2013-07-02 19:52:00,67.0,61.0,30.01,NE,39,1.0,5.0,82,0.01,,,0.15,,2013-07-03 00:52:00,
2013-07-02 20:01:00,67.0,61.0,30.01,NE,39,1.0,5.0,82,0.01,,,0.15,,2013-07-03 01:01:00,
2013-07-02 20:11:00,67.0,61.0,30.01,NE,39,1.0,5.0,82,0.01,,,0.15,,2013-07-03 01:11:00,
2013-07-02 20:22:00,67.0,61.0,30.01,NE,39,1.0,5.0,82,0.01,,,0.15,,2013-07-03 01:22:00,
2013-07-02 20:33:00,67.0,61.0,30.01,NE,39,1.0,5.0,82,0.01,,,0.15,,2013-07-03 01:33:00,
2013-07-02 22:58:00,65.0,61.0,30.03,NNE,25,1.0,5.0,86,0.00,,,0.11,,2013-07-03 03:58:00,
2013-07-02 23:01:00,65.0,61.0,30.03,NNE,25,1.0,5.0,86,0.00,,,0.11,,2013-07-03 04:01:00,
2013-07-02 23:11:00,65.0,61.0,30.03,NNE,25,1.0,5.0,86,0.00,,,0.11,,2013-07-03 04:11:00,
2013-07-02 23:22:00,64.0,60.0,30.03,NE,44,1.0,5.0,86,0.00,,,0.09,,2013-07-03 04:22:00,
2013-07-02 23:33:00,64.0,60.0,30.03,NE,44,1.0,5.0,86,0.00,,,0.09,,2013-07-03 04:33:00,
2013-07-02 23:43:00,64.0,60.0,30.03,NE,44,1.0,5.0,86,0.00,,,0.09,,2013-07-03 04:43:00,
2013-07-02 23:52:00,64.0,60.0,30.03,NNE,19,1.0,4.0,87,0.00,,,0.09,,2013-07-03 04:52:00,